Ashtabula, OH

11:59 PM EDT on April 23, 2017 (GMT -0400)
Ashtabula County

Weather History for KHZY - January, 2013

Change the Weather History Date:

Sunday, January 20, 2013

  Actual Average (KGKJ) Record (KGKJ)
Temperature  
Mean Temperature 34 °F -  
Max Temperature 46 °F 31 °F 57 °F (1951)
Min Temperature 21 °F 12 °F -11 °F (1985)
Degree Days  
Heating Degree Days 32    
Moisture  
Dew Point 14 °F    
Average Humidity 60    
Maximum Humidity 68    
Minimum Humidity 47    
Precipitation  
Precipitation 0.00 in - - ()
Sea Level Pressure  
Sea Level Pressure 30.00 in    
Wind  
Wind Speed 19 mph (West)    
Max Wind Speed 33 mph    
Max Gust Speed 47 mph    
Visibility 7 miles    
Events Snow    
Averages and records for this station are not official NWS values.
T = Trace of Precipitation, MM = Missing Value Source: NWS Daily Summary

Daily Weather History Graph

Daily Weather History Graph

Search for Another Location

Airport or City:

Trip Planner

Search our weather history database for the weather conditions in past years. The results will help you decide how hot, cold, wet, or windy it might be!

Date:

Astronomy

Jan. 20, 2013 Rise Set
Actual Time 7:44 AM EST 5:23 PM EST
Civil Twilight 7:14 AM EST 5:53 PM EST
Nautical Twilight 6:40 AM EST 6:27 PM EST
Astronomical Twilight 6:07 AM EST 7:00 PM EST
Moon 12:23 PM EST (1/20) 2:15 AM EST (1/20)
Length of Visible Light 10h 39m
Length of Day
9h 38m
Waxing Gibbous, 66% of the Moon is Illuminated
Jan 20
Waxing Gibbous
Jan 26
Full
Feb 3
Last Quarter
Feb 10
New
Feb 17
First Quarter

Hourly Weather History & Observations

Time (EST) Temp. Windchill Dew Point Humidity Pressure Visibility Wind Dir Wind Speed Gust Speed Precip Events Conditions
12:53 AM 46.0 °F 39.3 °F 27.0 °F 47% 29.65 in 10.0 mi SW 16.1 mph 26.5 mph N/A   Overcast
1:53 AM 46.0 °F 38.5 °F 28.9 °F 51% 29.64 in 10.0 mi WSW 19.6 mph 32.2 mph N/A   Scattered Clouds
2:53 AM 45.0 °F 36.4 °F 28.9 °F 53% 29.65 in 10.0 mi WSW 23.0 mph 41.4 mph N/A   Overcast
3:53 AM 44.1 °F 35.7 °F 28.0 °F 53% 29.66 in 10.0 mi WSW 20.7 mph 27.6 mph N/A   Overcast
4:53 AM 39.9 °F 27.8 °F 23.0 °F 51% 29.70 in 10.0 mi West 33.4 mph 47.2 mph N/A   Scattered Clouds
5:53 AM 36.0 °F 26.0 °F 21.0 °F 55% 29.78 in 10.0 mi West 17.3 mph 33.4 mph N/A   Overcast
6:39 AM 30.2 °F 16.2 °F 19.4 °F 64% 29.83 in 10.0 mi West 25.3 mph 34.5 mph N/A   Overcast
6:53 AM 30.0 °F 17.9 °F 17.1 °F 59% 29.87 in 10.0 mi WNW 18.4 mph 36.8 mph N/A   Overcast
7:53 AM 28.0 °F 16.1 °F 15.1 °F 58% 29.92 in 10.0 mi WNW 16.1 mph 31.1 mph N/A   Overcast
8:05 AM 26.6 °F 13.8 °F 15.8 °F 64% 29.91 in 10.0 mi West 17.3 mph 28.8 mph N/A   Overcast
8:26 AM 26.6 °F 12.4 °F 12.2 °F 55% 29.93 in 10.0 mi West 21.9 mph 38.0 mph N/A   Overcast
8:53 AM 26.1 °F 10.7 °F 12.9 °F 58% 29.98 in 9.0 mi WNW 25.3 mph 41.4 mph N/A   Overcast
9:32 AM 24.8 °F 9.0 °F 12.2 °F 59% 29.99 in 2.5 mi West 25.3 mph 36.8 mph 0.00 in Snow Light Snow
9:53 AM 23.0 °F 7.6 °F 12.0 °F 63% 30.04 in 4.0 mi WNW 21.9 mph 31.1 mph 0.00 in Snow Light Snow
10:11 AM 23.0 °F 7.6 °F 10.4 °F 59% 30.03 in 7.0 mi WNW 21.9 mph 32.2 mph 0.00 in Snow Light Snow
10:46 AM 21.2 °F 6.4 °F 12.2 °F 68% 30.05 in 2.5 mi WNW 18.4 mph 26.5 mph 0.00 in Snow Light Snow
10:53 AM 21.9 °F 7.8 °F 12.9 °F 68% 30.08 in 2.0 mi WNW 17.3 mph 26.5 mph 0.00 in Snow Light Snow
11:16 AM 21.2 °F 6.8 °F 12.2 °F 68% 30.07 in 3.0 mi West 17.3 mph 26.5 mph 0.00 in Snow Light Snow
11:24 AM 21.2 °F 6.4 °F 10.4 °F 63% 30.07 in 2.5 mi West 18.4 mph 26.5 mph 0.00 in Snow Light Snow
11:32 AM 21.2 °F 5.6 °F 10.4 °F 63% 30.07 in 4.0 mi West 20.7 mph 27.6 mph 0.00 in Snow Light Snow
11:53 AM 21.9 °F 6.9 °F 12.0 °F 66% 30.10 in 2.0 mi West 19.6 mph 27.6 mph 0.00 in Snow Light Snow
12:07 PM 21.2 °F 7.3 °F 10.4 °F 63% 30.07 in 5.0 mi West 16.1 mph 24.2 mph 0.00 in Snow Light Snow
12:15 PM 21.2 °F 6.0 °F 8.6 °F 58% 30.07 in 9.0 mi West 19.6 mph 26.5 mph 0.00 in   Overcast
12:53 PM 21.9 °F 8.2 °F 9.0 °F 58% 30.10 in 9.0 mi West 16.1 mph 24.2 mph 0.00 in   Overcast
1:51 PM 21.2 °F 7.8 °F 10.4 °F 63% 30.08 in 5.0 mi West 15.0 mph 23.0 mph 0.00 in Snow Light Snow
1:53 PM 21.9 °F 7.3 °F 10.0 °F 60% 30.11 in 7.0 mi West 18.4 mph 24.2 mph 0.00 in Snow Light Snow
2:04 PM 21.2 °F 7.8 °F 10.4 °F 63% 30.08 in 5.0 mi West 15.0 mph 23.0 mph 0.00 in Snow Light Snow
2:53 PM 21.9 °F 8.2 °F 10.0 °F 60% 30.11 in 9.0 mi West 16.1 mph 24.2 mph 0.00 in Snow Light Snow
3:22 PM 21.2 °F 8.3 °F 10.4 °F 63% 30.08 in 4.0 mi West 13.8 mph 21.9 mph 0.00 in Snow Light Snow
3:53 PM 21.9 °F 9.8 °F 9.0 °F 58% 30.13 in 10.0 mi West 12.7 mph 23.0 mph 0.00 in   Overcast
4:53 PM 21.9 °F 11.0 °F 10.0 °F 60% 30.14 in 9.0 mi West 10.4 mph 18.4 mph 0.00 in   Overcast
5:53 PM 21.9 °F 9.2 °F 10.9 °F 63% 30.16 in 9.0 mi West 13.8 mph 20.7 mph 0.00 in Snow Light Snow
6:53 PM 21.9 °F 11.7 °F 12.0 °F 66% 30.16 in 8.0 mi WSW 9.2 mph - 0.00 in Snow Light Snow
7:53 PM 23.0 °F 10.6 °F 10.0 °F 58% 30.16 in 10.0 mi West 13.8 mph 18.4 mph 0.00 in   Overcast
8:53 PM 24.1 °F 14.4 °F 10.9 °F 57% 30.15 in 10.0 mi WNW 9.2 mph - N/A   Overcast
9:53 PM 23.0 °F 13.9 °F 10.9 °F 60% 30.16 in 8.0 mi WNW 8.1 mph - 0.00 in Snow Light Snow
10:53 PM 21.9 °F 11.7 °F 10.9 °F 63% 30.15 in 6.0 mi West 9.2 mph - 0.00 in Snow Light Snow
11:53 PM 21.0 °F 11.4 °F 12.0 °F 68% 30.14 in 3.0 mi NW 8.1 mph - 0.00 in Snow Light Snow